Location: Bishopstone
(51.0167°N, 1.9000°W)
Time: 16:44:49
(UTC+00:00)

Lacrosse 4 Rocket - Pass Details

Date: 16 September 2019
Orbit: 544 x 615 km, 68.0° (Epoch: 13 October)

Event Time Altitude Azimuth Distance (km) Brightness Sun altitude
Rises 19:13:20 0° 312° (NW) 2,731 6.2 -9.0°
Reaches altitude 10° 19:16:14 10° 290° (WNW) 1,824 5.6 -9.5°
Maximum altitude 19:18:43 16° 252° (WSW) 1,480 4.4 -9.8°
Drops below altitude 10° 19:21:10 10° 215° (SW) 1,809 4.2 -10.2°
Sets 19:24:02 0° 193° (SSW) 2,696 4.8 -10.7°
